STARLINK-4264, 52993

Orbit data source: Space-Track

STARLINK-4264, 52993 is a payload satellite owned by SpaceX/Seattle (US) in LEO that was launched on Thu, 07 Jul 2022 UTC via an FALCON 9 launch vehicle from the Air Force Eastern Test Range (AFETR). Payload-class satellites include a variety of spacecraft equipped with specific instruments for various scientific and technological missions. These include communications satellites like Starlink; space stations such as the ISS; scientific satellites like the Hubble; Earth observation satellites from companies like Planet Labs, Umbra, and HawkEye 360; GPS; miniature CubeSats for education and research; and military/defense satellites.

Loading next visibility...
Identifier
52993, 2022-076H
Orbit
LEO
Country
Flag of USUS
Related business
Manufacturer
SpaceX/Seattle
Mission
Operational spacecraft
Bus & Motor
STARLINK, Unknown motor
Mass
297 kg wet, ~275 kg dry
Launch date (UTC)
2022-07-07 (3 years ago)
Launch vehicle
FALCON 9
Launch site
Air Force Eastern Test Range (AFETR)
Object type
Payload
Rocket body
Debris
Shape & HBR
Unknown shape, 10.1 m
Radar Cross Section
Large (>1 m²)

Expand to show TLE details & history
Last TLE update: 16 hours ago

TLE from 16 hours ago
0 STARLINK-4264
1 52993U 22076H   25340.76929500 -.00001062  00000-0 -48682-4 0  9990
2 52993  53.2179 151.2560 0001338  94.8802 265.2343 15.08824203188817
Epoch: 2025-12-06T18:27Z
TLE epoch observation values (Epoch: 2025-12-06T18:27:47.088Z)
Latitude
0.00001°
Longitude
158.51752°
Altitude
540.766 km
Speed
7.593 km/s
True Right ascension
10h 05m 01s
True Declination
0° 00' 00"
Sunlit
Object was in daylight at epoch
Visualization orbit readout
Latitude
Unknown
Longitude
Unknown
Altitude
Unknown
Speed
Unknown
Apparent Right ascension
Unknown
Apparent Declination
Unknown
Sunlit
N/A
Visualization observer readout
Local Sidereal Time
08:31:37
Azimuth
Unknown
Elevation
Unknown
Doppler factor
Unknown
Orbital elements
Apogee altitude
540.962 km
Perigee altitude
539.111 km
Semi-major axis
6,918.174 km
Eccentricity
0.00013
Inclination
53.2179°
RAAN
151.256°
Arg. of periapsis
94.8802°
True anomaly
265.21902°
Mean anomaly
265.2343°
Eccentric anomaly
265.22666°
Mean motion
3.77186 °/min
Orbital period
95.44 mins
BSTAR
-0.000048682
Loading maneuver chart data...
Computing Atmospheric mass density...
Loading historical data...
Loading historical data...
Loading historical data...
Loading historical data...
Loading historical data...
Loading historical data...
Loading historical data...

Documentation

Showing up to 5 results
|